CW9669 Weather Reports


Display with metric or nautical units.
time (UTC)temp
F
wind
direction
speed
MPH
gust
MPH
rain 1hr
in
rain 24hr
in
rain mn
in
humidity
%
barometer
mb
20260510110055 53 202 0.0 2.0 0.00 0.00 0.00 87 1016.2
20260510105059 53 351 0.0 1.0 0.00 0.00 0.00 86 1016.0
20260510104056 53 332 0.0 0.0 0.00 0.00 0.00 86 1015.9
20260510103057 53 332 0.0 1.0 0.00 0.00 0.00 86 1015.8
20260510102057 53 221 0.0 2.0 0.00 0.00 0.00 86 1015.9
20260510101054 52 252 0.0 2.0 0.00 0.00 0.00 88 1015.8
20260510100053 52 205 0.0 1.0 0.00 0.00 0.00 87 1015.5
20260510095052 52 165 0.0 0.0 0.00 0.00 0.00 86 1015.2
20260510094052 53 165 0.0 0.0 0.00 0.00 0.00 85 1015.2
20260510093054 53 165 0.0 0.0 0.00 0.00 0.00 85 1015.2
20260510092527 53 165 0.0 0.0 0.00 0.00 0.00 84 1015.2
20260510091541 53 165 0.0 0.0 0.00 0.00 0.00 84 1015.2
20260510090539 53 165 0.0 0.0 0.00 0.00 0.00 83 1015.2
20260510085050 54 165 0.0 0.0 0.00 0.00 0.00 82 1015.1
20260510084051 54 165 0.0 0.0 0.00 0.00 0.00 81 1015.2
20260510083050 55 165 0.0 0.0 0.00 0.00 0.00 80 1015.1
20260510082049 55 165 0.0 0.0 0.00 0.00 0.00 78 1015.0
20260510081049 56 165 0.0 2.0 0.00 0.00 0.00 78 1014.9
20260510080047 56 132 0.0 1.0 0.00 0.00 0.00 79 1015.0
20260510075048 56 169 0.0 1.0 0.00 0.00 0.00 82 1015.2
20260510074537 57 340 0.0 0.0 0.00 0.00 0.00 80 1015.1
20260510073047 58 341 0.0 0.0 0.00 0.00 0.00 77 1014.9
20260510072043 60 340 0.0 0.0 0.00 0.00 0.00 74 1014.9
20260510071717 60 341 0.0 0.0 0.00 0.00 0.00 71 1014.9
20260510070908 61 341 0.0 1.0 0.00 0.00 0.00 69 1014.7
20260510065521 61 337 0.0 1.0 0.00 0.00 0.00 69 1014.7
20260510064537 61 347 0.0 5.0 0.00 0.00 0.00 71 1014.7
20260510063043 61 56 0.0 0.0 0.00 0.00 0.00 74 1014.5
20260510062042 61 56 0.0 0.0 0.00 0.00 0.00 75 1014.5
20260510061043 61 56 0.0 1.0 0.00 0.00 0.00 74 1014.4
20260510060045 61 56 0.0 1.0 0.00 0.00 0.00 74 1014.3
20260510055044 61 355 0.0 1.0 0.00 0.00 0.00 74 1014.3
20260510054042 62 349 0.0 0.0 0.00 0.00 0.00 73 1014.3
20260510053951 62 349 0.0 0.0 0.00 0.00 0.00 72 1014.3
20260510052526 62 349 0.0 0.0 0.00 0.00 0.00 71 1014.1
20260510051524 63 349 0.0 0.0 0.00 0.00 0.00 69 1014.1
20260510050041 64 349 0.0 0.0 0.00 0.00 0.00 67 1014.1
20260510045042 65 350 0.0 0.0 0.00 0.00 0.00 65 1014.0
20260510044042 65 350 0.0 0.0 0.00 0.00 0.00 65 1013.9
20260510043043 64 350 0.0 0.0 0.00 0.00 0.00 67 1013.8
20260510042523 65 321 0.0 0.0 0.00 0.00 0.00 66 1013.8
20260510041528 66 321 0.0 0.0 0.00 0.00 0.00 64 1013.5
20260510040043 67 321 0.0 0.0 0.00 0.00 0.00 62 1013.4
20260510035044 68 321 0.0 0.0 0.00 0.00 0.00 59 1013.4
20260510034043 69 321 0.0 0.0 0.00 0.00 0.00 58 1013.2
20260510033520 70 325 0.0 2.0 0.00 0.00 0.00 56 1013.2
20260510032045 70 319 0.0 2.0 0.00 0.00 0.00 55 1013.0
20260510031044 71 312 1.0 3.0 0.00 0.00 0.00 55 1013.0
20260510030527 72 296 0.0 2.0 0.00 0.00 0.00 54 1012.9
20260510025042 72 305 1.0 3.0 0.00 0.00 0.00 53 1012.8
20260510024042 73 342 1.0 3.0 0.00 0.00 0.00 51 1012.8
20260510023043 73 309 1.0 5.0 0.00 0.00 0.00 49 1012.8
20260510023008 73 300 2.0 5.0 0.00 0.00 0.00 47 1012.8
20260510021042 74 310 1.0 4.0 0.00 0.00 0.00 44 1013.0
20260510020042 74 317 1.0 3.0 0.00 0.00 0.00 44 1012.9
20260510015044 74 302 2.0 4.0 0.00 0.00 0.00 43 1012.9
20260510014042 74 336 3.0 9.0 0.00 0.00 0.00 43 1013.0
20260510013041 75 304 2.0 7.0 0.00 0.00 0.00 44 1013.0
20260510012041 76 315 3.0 6.0 0.00 0.00 0.00 44 1013.1
20260510011041 76 348 3.0 9.0 0.00 0.00 0.00 44 1013.1
20260510010042 76 305 3.0 9.0 0.00 0.00 0.00 45 1013.3
20260510005044 76 252 3.0 8.0 0.00 0.00 0.00 47 1013.1
20260510004044 76 314 3.0 9.0 0.00 0.00 0.00 45 1013.1
20260510004014 76 281 4.0 9.0 0.00 0.00 0.00 45 1013.1
20260510002531 76 301 3.0 12.0 0.00 0.00 0.00 45 1013.3
20260510001042 75 271 5.0 11.0 0.00 0.00 0.00 46 1013.3
20260510001018 76 38 4.0 12.0 0.00 0.00 0.00 46 1013.3
20260509235516 75 304 4.0 11.0 0.00 0.00 0.00 50 1013.3
20260509234042 75 317 4.0 11.0 0.00 0.00 0.00 51 1013.4
20260509233041 75 301 4.0 12.0 0.00 0.00 0.00 52 1013.5
20260509232039 75 333 5.0 11.0 0.00 0.00 0.00 52 1013.5
20260509231037 75 323 4.0 8.0 0.00 0.00 0.00 54 1013.7
20260509230038 75 291 4.0 10.0 0.00 0.00 0.00 54 1013.9
20260509225039 74 303 4.0 10.0 0.00 0.00 0.00 55 1014.0
20260509224035 74 296 4.0 10.0 0.00 0.00 0.00 55 1014.2
20260509223034 73 304 5.0 13.0 0.00 0.00 0.00 57 1014.3
20260509222035 73 12 5.0 11.0 0.00 0.00 0.00 57 1014.4
20260509221031 73 306 4.0 9.0 0.00 0.00 0.00 57 1014.5
20260509220035 73 299 4.0 11.0 0.00 0.00 0.00 59 1014.7
20260509215033 73 281 4.0 11.0 0.00 0.00 0.00 59 1015.1
20260509214031 72 22 4.0 12.0 0.00 0.00 0.00 59 1015.1
20260509213032 72 342 4.0 11.0 0.00 0.00 0.00 60 1015.1
20260509212032 72 286 5.0 14.0 0.00 0.00 0.00 60 1015.2
20260509211032 71 271 4.0 9.0 0.00 0.00 0.00 61 1015.4
20260509210521 70 329 4.0 10.0 0.00 0.00 0.00 62 1015.3
20260509205031 71 19 4.0 11.0 0.00 0.00 0.00 62 1015.4
20260509204029 70 342 5.0 10.0 0.00 0.00 0.00 63 1015.7
20260509203028 69 305 4.0 11.0 0.00 0.00 0.00 64 1015.7
20260509202028 69 276 5.0 11.0 0.00 0.00 0.00 64 1015.8
20260509201028 69 297 4.0 9.0 0.00 0.00 0.00 65 1015.9
20260509200028 68 335 5.0 13.0 0.00 0.00 0.00 66 1016.1
20260509195516 68 23 3.0 11.0 0.00 0.00 0.00 66 1016.3
20260509194029 67 300 3.0 9.0 0.00 0.00 0.00 67 1016.2
20260509193029 66 282 3.0 9.0 0.00 0.00 0.00 69 1016.4
20260509192503 66 344 4.0 10.0 0.00 0.00 0.00 68 1016.7
20260509191027 65 288 3.0 10.0 0.00 0.00 0.00 69 1016.7
20260509190029 64 281 5.0 12.0 0.00 0.00 0.00 70 1016.8
20260509185026 65 293 3.0 7.0 0.00 0.00 0.00 70 1017.0
20260509184026 64 338 3.0 8.0 0.00 0.00 0.00 71 1017.0
20260509183533 63 275 1.0 5.0 0.00 0.00 0.00 73 1017.1
20260509182024 62 284 3.0 9.0 0.00 0.00 0.00 73 1017.2
20260509181513 61 298 3.0 9.0 0.00 0.00 0.00 73 1017.3
20260509180021 60 297 3.0 8.0 0.00 0.00 0.00 74 1017.3
20260509175023 60 288 3.0 5.0 0.00 0.00 0.00 74 1017.3
20260509174022 60 325 2.0 6.0 0.00 0.00 0.00 75 1017.3
20260509173022 59 22 3.0 8.0 0.00 0.00 0.00 76 1017.4
20260509172023 58 314 3.0 8.0 0.00 0.00 0.00 76 1017.6
20260509171023 58 306 3.0 8.0 0.00 0.00 0.00 77 1017.7
20260509170021 58 280 2.0 5.0 0.00 0.00 0.00 78 1017.8
20260509165026 57 291 1.0 7.0 0.00 0.00 0.00 78 1018.0
20260509164950 57 296 1.0 4.0 0.00 0.00 0.00 80 1018.1
20260509163016 56 207 1.0 3.0 0.00 0.00 0.00 80 1018.3
20260509162016 56 5 1.0 4.0 0.00 0.00 0.00 81 1018.3
20260509161014 55 282 0.0 3.0 0.00 0.00 0.00 83 1018.3
20260509160014 54 286 1.0 3.0 0.00 0.00 0.00 83 1018.4
20260509155015 53 49 1.0 4.0 0.00 0.00 0.00 84 1018.5
20260509154015 53 283 1.0 3.0 0.00 0.00 0.00 85 1018.6
20260509153013 52 298 0.0 1.0 0.00 0.00 0.00 86 1018.7
20260509152452 51 290 0.0 1.0 0.00 0.00 0.00 87 1018.8
20260509151011 50 290 0.0 1.0 0.00 0.00 0.00 89 1018.7
20260509150011 49 273 0.0 0.0 0.00 0.00 0.00 92 1018.8
20260509145010 48 160 0.0 0.0 0.00 0.00 0.00 94 1018.8
20260509144009 48 161 0.0 0.0 0.00 0.00 0.00 95 1018.8
20260509143005 47 161 0.0 1.0 0.00 0.00 0.00 95 1019.0
20260509142004 46 142 0.0 1.0 0.00 0.00 0.00 95 1018.9
20260509141005 45 142 0.0 0.0 0.00 0.00 0.00 95 1019.0
20260509140006 45 142 0.0 1.0 0.00 0.00 0.00 95 1018.9
20260509135007 44 11 0.0 0.0 0.00 0.00 0.00 95 1018.9
20260509134004 44 11 0.0 0.0 0.00 0.00 0.00 95 1019.1
20260509133444 44 11 0.0 0.0 0.00 0.00 0.00 94 1019.0
20260509132436 44 11 0.0 0.0 0.00 0.00 0.00 94 1018.8
20260509131003 44 11 0.0 0.0 0.00 0.00 0.00 94 1019.2
20260509130002 45 11 0.0 0.0 0.00 0.00 0.00 94 1019.2
20260509125001 44 11 0.0 0.0 0.00 0.00 0.00 94 1019.3
20260509124004 45 11 0.0 0.0 0.00 0.00 0.00 93 1019.3
20260509123001 45 11 0.0 0.0 0.00 0.00 0.00 93 1019.1
20260509122003 45 11 0.0 0.0 0.00 0.00 0.00 93 1019.2
20260509121003 46 11 0.0 0.0 0.00 0.00 0.00 93 1019.1
20260509120008 46 11 0.0 0.0 0.00 0.00 0.00 93 1019.4
20260509115439 46 11 0.0 0.0 0.00 0.00 0.00 93 1019.4
20260509114436 46 11 0.0 0.0 0.00 0.00 0.00 93 1019.2
20260509112959 47 11 0.0 0.0 0.00 0.00 0.00 93 1019.0
20260509111959 47 84 0.0 0.0 0.00 0.00 0.00 93 1019.3
20260509111001 47 84 0.0 1.0 0.00 0.00 0.00 92 1019.3